Back to catalog

STARLINK-1276

AliveCommunicationsVLEO
NORAD 45368·PAYLOAD·🇺🇸 United States

Launched Mar 18, 2020 from Cape Canaveral Space Force Station

Loading…

Next Passes (next 24 hours)

TLE

FreshSource: CelesTrak SupGP

Epoch: Sep 14, 2026, 21:03 UTC

1 45368C 20019J   26257.87756944  .00041066  00000+0  19623-2 0  2576
2 45368  53.0717  26.8173 0000839  49.7455   5.9326 15.18485383    14

Track STARLINK-1276 in real time with AllMySat

Download on the App Store